Greensboro, NC

1:17 AM EDT on April 27, 2018 (GMT -0400)
Piedmont Triad International

Weather History for KGSO - November, 2014

Change the Weather History Date:

Friday, November 7, 2014

  Actual Average Record
Temperature  
Mean Temperature 48 °F 53 °F  
Max Temperature 58 °F 64 °F 78 °F (1938)
Min Temperature 38 °F 42 °F 22 °F (1930)
Degree Days  
Heating Degree Days 17 12  
Month to date heating degree days 102 79  
Since 1 July heating degree days 270 312  
Cooling Degree Days 0 0  
Month to date cooling degree days 0 0  
Year to date cooling degree days 1499 1480  
Moisture  
Dew Point 32 °F    
Average Humidity 53    
Maximum Humidity 70    
Minimum Humidity 35    
Precipitation  
Precipitation 0.00 in 0.11 in 1.77 in (1912)
Month to date precipitation 0.96 0.76  
Year to date precipitation 31.78 36.87  
Sea Level Pressure  
Sea Level Pressure 29.97 in    
Wind  
Wind Speed 9 mph (NW)    
Max Wind Speed 28 mph    
Max Gust Speed 36 mph    
Visibility 10 miles    
Events      
T = Trace of Precipitation, MM = Missing Value Source: NWS Daily Summary

Daily Weather History Graph

Daily Weather History Graph

Search for Another Location

Airport or City:

Astronomy

Nov. 07, 2014 Rise Set
Actual Time 6:48 AM EST 5:18 PM EST
Civil Twilight 6:21 AM EST 5:44 PM EST
Nautical Twilight 5:50 AM EST 6:15 PM EST
Astronomical Twilight 5:20 AM EST 6:45 PM EST
Moon 6:09 PM EST (11/7) 7:22 AM EST (11/7)
Length of Visible Light 11h 23m
Length of Day
10h 29m
Full, 99% of the Moon is Illuminated
Nov 7
Full
Nov 14
Last Quarter
Nov 22
New
Nov 29
First Quarter
Dec 6
Full

Hourly Weather History & Observations

Time (EST) Temp. Windchill Dew Point Humidity Pressure Visibility Wind Dir Wind Speed Gust Speed Precip Events Conditions
12:54 AM 44.1 °F 39.0 °F 33.1 °F 65% 29.87 in 10.0 mi WNW 9.2 mph - N/A   Clear
1:54 AM 43.0 °F 38.8 °F 33.1 °F 68% 29.86 in 10.0 mi West 6.9 mph - N/A   Clear
2:54 AM 45.0 °F - 33.1 °F 63% 29.87 in 10.0 mi Calm Calm - N/A   Clear
3:54 AM 42.1 °F 36.6 °F 33.1 °F 70% 29.88 in 10.0 mi WNW 9.2 mph - N/A   Clear
4:54 AM 46.9 °F - 32.0 °F 56% 29.90 in 10.0 mi NW 10.4 mph 24.2 mph N/A   Clear
5:54 AM 44.1 °F 39.0 °F 32.0 °F 63% 29.91 in 10.0 mi WNW 9.2 mph - N/A   Clear
6:54 AM 44.1 °F 37.4 °F 32.0 °F 63% 29.94 in 10.0 mi NW 13.8 mph - N/A   Clear
7:54 AM 46.0 °F 42.5 °F 33.1 °F 61% 29.96 in 10.0 mi WNW 6.9 mph - N/A   Clear
8:54 AM 48.9 °F - 34.0 °F 56% 29.99 in 10.0 mi WNW 15.0 mph 24.2 mph N/A   Partly Cloudy
9:54 AM 52.0 °F - 35.1 °F 53% 29.99 in 10.0 mi NW 17.3 mph 21.9 mph N/A   Scattered Clouds
10:54 AM 53.1 °F - 34.0 °F 48% 30.02 in 10.0 mi NW 16.1 mph 29.9 mph N/A   Scattered Clouds
11:54 AM 55.0 °F - 34.0 °F 45% 30.00 in 10.0 mi NW 16.1 mph 23.0 mph N/A   Scattered Clouds
12:54 PM 55.9 °F - 33.1 °F 42% 29.97 in 10.0 mi NW 13.8 mph 25.3 mph N/A   Scattered Clouds
1:54 PM 55.9 °F - 32.0 °F 40% 29.96 in 10.0 mi NW 16.1 mph 19.6 mph N/A   Mostly Cloudy
2:54 PM 55.9 °F - 33.1 °F 42% 29.95 in 10.0 mi WNW 16.1 mph - N/A   Mostly Cloudy
3:54 PM 55.0 °F - 28.9 °F 37% 29.97 in 10.0 mi NW 12.7 mph - N/A   Mostly Cloudy
4:54 PM 52.0 °F - 30.0 °F 43% 29.98 in 10.0 mi WNW 8.1 mph - N/A   Mostly Cloudy
5:54 PM 46.9 °F - 30.9 °F 54% 30.00 in 10.0 mi NW 5.8 mph - N/A   Mostly Cloudy
6:54 PM 48.0 °F - 30.9 °F 52% 30.02 in 10.0 mi NNW 8.1 mph - N/A   Mostly Cloudy
7:54 PM 46.0 °F 43.9 °F 30.9 °F 56% 30.04 in 10.0 mi North 4.6 mph - N/A   Mostly Cloudy
8:54 PM 45.0 °F 41.8 °F 30.9 °F 58% 30.04 in 10.0 mi Variable 5.8 mph - N/A   Mostly Cloudy
9:54 PM 43.0 °F - 30.9 °F 62% 30.05 in 10.0 mi Calm Calm - N/A   Mostly Cloudy
10:54 PM 41.0 °F - 30.0 °F 65% 30.06 in 10.0 mi Calm Calm - N/A   Scattered Clouds
11:54 PM 39.0 °F 36.8 °F 30.9 °F 73% 30.06 in 10.0 mi North 3.5 mph - N/A   Scattered Clouds